Regional Weather Roundup
Issued by NWS

Home | Current Version | Previous Version | Text Only | Print | Product List | Glossary On
Versions: 1 2 3 4 5 6 7 8 9 10 11 12 13 14 15 16 17 18 19 20 21 22 23 24 25 26 27 28 29 30 31 32 33 34 35 36 37 38 39 40 41 42 43 44 45 46 47 48 49
000
ASUS45 KBOI 040110
RWRID

IDAHO REGIONAL WEATHER ROUNDUP
NATIONAL WEATHER SERVICE BOISE ID
700 PM MDT MON AUG 03 2015

NOTE: "FAIR" INDICATES FEW OR NO CLOUDS BELOW 12000 FEET
WITH NO SIGNIFICANT WEATHER AND/OR OBSTRUCTIONS TO VISIBILITY

IDZ012-014-040200-
SOUTHWEST IDAHO


CITY           SKY/WX    TMP DP  RH WIND       PRES   REMARKS
BOISE          PTSUNNY   91  47  21 NE3       29.85F
CALDWELL       PTSUNNY   93  50  22 NE5       29.84F HX  90
MOUNTAIN HOME  PTSUNNY   90  45  20 N6        29.85F
$$

IDZ016-017-040200-
SOUTHCENTRAL IDAHO


CITY           SKY/WX    TMP DP  RH WIND       PRES   REMARKS
BURLEY         PTSUNNY   79  48  33 S3        29.97F
JEROME         PTSUNNY   82  47  29 E7        29.96F
TWIN FALLS     CLOUDY    84  47  27 E12       29.94F
$$

IDZ019>023-040200-
SOUTHEAST IDAHO


CITY           SKY/WX    TMP DP  RH WIND       PRES   REMARKS
IDAHO FALLS    CLOUDY    71  54  54 SE10      30.06R
POCATELLO      CLOUDY    71  57  61 VRB5      30.03F
REXBURG        CLOUDY    69  47  45 S8        30.05F
$$

IDZ006-010-011-018-031-032-040200-
CENTRAL IDAHO MOUNTAINS


CITY           SKY/WX    TMP DP  RH WIND       PRES   REMARKS
MCCALL         CLOUDY    73  42  32 E3        30.02F
HAILEY         CLOUDY    73  45  35 NW9       30.07F
STANLEY          N/A     72  39  30 N6        30.13F
SALMON         CLOUDY    82  46  28 N3        29.88R
CHALLIS        CLOUDY    78  42  27 S25G33    30.01R
$$

IDZ002-004-006-007-026-040200-
NORTHERN IDAHO


CITY           SKY/WX    TMP DP  RH WIND       PRES   REMARKS
LEWISTON       CLOUDY    89  39  17 W15G23    29.80R
LOWELL           N/A     82  57  42 N3        29.80R
COEUR D`ALENE  CLOUDY    88  41  19 SW10      29.80S
MULLAN PASS    PTSUNNY   70  38  31 VRB5      30.05R
$$


USA.gov is the U.S. government's official web portal to all federal, state and local government web resources and services.